Shanghai Hongqiao, China

8:16 AM CST on September 22, 2017 (GMT +0800)
Hongqiao

Weather History for ZSSS - December, 2013

Change the Weather History Date:

Saturday, December 14, 2013

  Actual Average Record
Temperature  
Mean Temperature 47 °F -  
Max Temperature 57 °F 49 °F 64 °F (1996)
Min Temperature 37 °F 35 °F 26 °F (2005)
Degree Days  
Heating Degree Days 18    
Moisture  
Dew Point 37 °F    
Average Humidity 64    
Maximum Humidity 81    
Minimum Humidity 48    
Precipitation  
Precipitation 0.00 in 0.05 in - ()
Sea Level Pressure  
Sea Level Pressure 30.35 in    
Wind  
Wind Speed 5 mph ()    
Max Wind Speed 11 mph    
Max Gust Speed 22 mph    
Visibility 3.7 miles    
Events      
Averages and records for this station are not official NWS values.
T = Trace of Precipitation, MM = Missing Value Source: Averaged Metar Reports

Daily Weather History Graph

Daily Weather History Graph

Search for Another Location

Airport or City:

Trip Planner

Search our weather history database for the weather conditions in past years. The results will help you decide how hot, cold, wet, or windy it might be!

Date:

Astronomy

Dec. 14, 2013 Rise Set
Actual Time 6:44 AM CST 4:53 PM CST
Civil Twilight 6:18 AM CST 5:20 PM CST
Nautical Twilight 5:48 AM CST 5:50 PM CST
Astronomical Twilight 5:18 AM CST 6:19 PM CST
Moon 2:44 PM CST (12/14) 3:40 AM CST (12/14)
Length of Visible Light 11h 01m
Length of Day
10h 08m
Waxing Gibbous, 90% of the Moon is Illuminated
Dec 14
Waxing Gibbous
Dec 17
Full
Dec 25
Last Quarter
Jan 1
New
Jan 8
First Quarter

Hourly Weather History & Observations

Time (CST) Temp. Windchill Dew Point Humidity Pressure Visibility Wind Dir Wind Speed Gust Speed Precip Events Conditions
12:00 AM 44.6 °F 40.8 °F 33.8 °F 66% 30.33 in - East 6.7 mph - N/A   Clear
12:30 AM 44.6 °F 40.8 °F 33.8 °F 66% 30.33 in - East 6.7 mph - N/A   Clear
1:00 AM 44.6 °F 42.3 °F 33.8 °F 66% 30.33 in - East 4.5 mph - N/A   Clear
1:30 AM 42.8 °F 40.2 °F 33.8 °F 70% 30.33 in - ENE 4.5 mph - N/A   Clear
2:00 AM 42.8 °F 40.2 °F 33.8 °F 70% 30.33 in - NE 4.5 mph - N/A   Clear
2:30 AM 41.0 °F 38.1 °F 33.8 °F 76% 30.30 in - NE 4.5 mph - N/A   Clear
3:00 AM 41.0 °F 38.1 °F 32.0 °F 70% 30.33 in - East 4.5 mph - N/A   Clear
3:30 AM 41.0 °F - 33.8 °F 76% 30.33 in - Calm Calm - N/A   Clear
4:00 AM 39.2 °F - 32.0 °F 75% 30.33 in - North 2.2 mph - N/A   Clear
4:30 AM 39.2 °F 36.0 °F 32.0 °F 75% 30.33 in - NNE 4.5 mph - N/A   Clear
5:00 AM 39.2 °F - 33.8 °F 81% 30.33 in - NNE 2.2 mph - N/A   Clear
5:30 AM 39.2 °F - 33.8 °F 81% 30.33 in - Calm Calm - N/A   Clear
6:00 AM 39.2 °F - 33.8 °F 81% 30.33 in - Variable 2.2 mph - N/A   Clear
6:30 AM 37.4 °F - 32.0 °F 81% 30.36 in - Variable 2.2 mph - N/A   Clear
7:00 AM 39.2 °F - 33.8 °F 81% 30.36 in - North 2.2 mph - N/A   Clear
7:30 AM 41.0 °F - 35.6 °F 81% 30.36 in - Variable 2.2 mph - N/A   Clear
8:00 AM 44.6 °F 42.3 °F 37.4 °F 76% 30.36 in - ENE 4.5 mph - N/A   Clear
8:30 AM 46.4 °F - 39.2 °F 76% 30.39 in 3.7 mi Variable 2.2 mph - N/A   Unknown
9:00 AM 50.0 °F - 37.4 °F 62% 30.39 in - East 6.7 mph - N/A   Clear
9:30 AM 50.0 °F - 35.6 °F 58% 30.39 in - East 11.2 mph 22.4 mph N/A   Clear
10:00 AM 51.8 °F - 35.6 °F 54% 30.39 in - ESE 11.2 mph - N/A   Clear
10:30 AM 53.6 °F - 35.6 °F 51% 30.39 in - ESE 8.9 mph - N/A   Clear
11:00 AM 53.6 °F - 37.4 °F 54% 30.36 in - ESE 8.9 mph - N/A   Clear
11:30 AM 55.4 °F - 37.4 °F 51% 30.36 in - SE 6.7 mph 17.9 mph N/A   Clear
12:00 PM 55.4 °F - 37.4 °F 51% 30.36 in - SE 6.7 mph - N/A   Clear
12:30 PM 55.4 °F - 37.4 °F 51% 30.33 in - SE 6.7 mph - N/A   Clear
1:00 PM 55.4 °F - 37.4 °F 51% 30.33 in - ESE 6.7 mph - N/A   Clear
1:30 PM 55.4 °F - 37.4 °F 51% 30.33 in - ESE 6.7 mph - N/A   Clear
2:00 PM 57.2 °F - 37.4 °F 48% 30.30 in - East 4.5 mph - N/A   Clear
2:30 PM 57.2 °F - 37.4 °F 48% 30.30 in - ESE 4.5 mph - N/A   Clear
3:00 PM 55.4 °F - 37.4 °F 51% 30.33 in - ESE 6.7 mph - N/A   Clear
3:30 PM 55.4 °F - 37.4 °F 51% 30.30 in - ESE 6.7 mph - N/A   Clear
4:00 PM 55.4 °F - 37.4 °F 51% 30.33 in - ESE 6.7 mph - N/A   Clear
4:30 PM 53.6 °F - 39.2 °F 58% 30.33 in - ESE 8.9 mph 20.1 mph N/A   Clear
5:00 PM 53.6 °F - 39.2 °F 58% 30.33 in - ESE 8.9 mph - N/A   Clear
5:30 PM 51.8 °F - 39.2 °F 62% 30.33 in - ESE 8.9 mph - N/A   Clear
6:00 PM 51.8 °F - 39.2 °F 62% 30.36 in - ESE 8.9 mph - N/A   Clear
6:30 PM 51.8 °F - 39.2 °F 62% 30.36 in - ESE 11.2 mph - N/A   Clear
7:00 PM 51.8 °F - 39.2 °F 62% 30.36 in - ESE 6.7 mph - N/A   Clear
7:30 PM 51.8 °F - 39.2 °F 62% 30.36 in - ESE 8.9 mph - N/A   Clear
8:00 PM 51.8 °F - 39.2 °F 62% 30.36 in - East 6.7 mph - N/A   Clear
8:30 PM 51.8 °F - 39.2 °F 62% 30.36 in - East 6.7 mph - N/A   Clear
9:00 PM 51.8 °F - 39.2 °F 62% 30.36 in - East 8.9 mph - N/A   Clear
9:30 PM 51.8 °F - 39.2 °F 62% 30.39 in - East 6.7 mph - N/A   Clear
10:00 PM 50.0 °F - 39.2 °F 66% 30.36 in - East 6.7 mph - N/A   Clear
10:30 PM 50.0 °F - 39.2 °F 66% 30.36 in - East 6.7 mph - N/A   Clear
11:00 PM 50.0 °F - 39.2 °F 66% 30.36 in - East 6.7 mph - N/A   Clear
11:30 PM 50.0 °F - 39.2 °F 66% 30.36 in - East 6.7 mph - N/A   Clear